Location: Chuathbaluk
(61.5726°N, 159.2454°W)
Time: 14:03:45
(UTC+00:00)

Altair - Pass Details

Date: 01 December 2020
Orbit: 1501 x 1682 km, 47.2° (Epoch: 17 January)

Event Time Altitude Azimuth Distance (km) Brightness Sun altitude
Rises 05:39:24 0° 190° (S) 4,718 10.1 -27.8°
Reaches altitude 10° 05:44:05 10° 171° (S) 3,706 9.3 -28.4°
Enters shadow 05:45:37 13° 162° (SSE) 3,475 9.1 -28.5°
